Regional Weather Roundup
Issued by NWS

Home | Current Version | Previous Version | Text Only | Print | Product List | Glossary Off
Versions: 1 2 3 4 5 6 7 8 9 10 11 12 13 14 15 16 17 18 19 20 21 22 23 24 25 26 27 28 29 30 31 32 33 34 35 36 37 38 39 40 41 42 43 44 45 46 47 48 49 50

000
ASUS43 KFSD 122110
RWRSD

WEATHER ROUNDUP FOR SOUTH DAKOTA
NATIONAL WEATHER SERVICE SIOUX FALLS SD
300 PM CST TUE DEC 12 2017

NOTE: "FAIR" INDICATES FEW OR NO CLOUDS BELOW 12,000 FEET WITH NO
SIGNIFICANT WEATHER AND/OR OBSTRUCTIONS TO VISIBILITY.


SDZ001>005-009-010-012>017-122200-
NORTHWEST AND NORTH CENTRAL SOUTH DAKOTA

CITY           SKY/WX    TMP DP  RH WIND       PRES   REMARKS
BUFFALO          N/A     59  21  23 W17       29.88F
FAITH            N/A     59  22  24 W17       29.90F
MOBRIDGE       SUNNY     53  28  38 W9        29.84F
$$

SDZ012>016-024>037-041>051-057-063-072>074-122200-
SOUTHWEST AND SOUTH CENTRAL SOUTH DAKOTA

CITY           SKY/WX    TMP DP  RH WIND       PRES   REMARKS
RAPID CTY ARPT SUNNY     60  15  17 S6        29.99F
PIERRE         SUNNY     55  27  34 W14       29.91F
CUSTER         SUNNY     55  10  16 W16G25    30.07F
ELLSWORTH AFB  SUNNY     62  15  16 S10       29.97  SMOKE
PHILIP         SUNNY     61  20  20 W18G24    29.95F
PINE RIDGE     PTSUNNY   56  24  29 SW8       30.02F
SPEARFISH      FAIR      61  14  16 W15G25    30.02F
WINNER         FAIR      60  17  18 W14       29.95F
$$

SDZ004>011-016>023-039-040-122200-
NORTHEAST SOUTH DAKOTA

CITY           SKY/WX    TMP DP  RH WIND       PRES   REMARKS
ABERDEEN       SUNNY     47  27  45 SW16G23   29.85F
WATERTOWN      CLOUDY    40  30  67 SW16      29.87F
BROOKINGS      MOSUNNY   39  29  67 SW15      29.92F
SISSETON         N/A     42  31  64 W21G28    29.81F
$$

SDZ017-020-022-023-036>040-048>070-122200-
SOUTHEAST SOUTH DAKOTA

CITY           SKY/WX    TMP DP  RH WIND       PRES   REMARKS
SIOUX FALLS    MOSUNNY   41  30  65 W9        29.98F
HURON          MOSUNNY   48  27  44 W8        29.93F
CHAMBERLAIN    SUNNY     55  21  26 W12       29.95F
MITCHELL       SUNNY     47  29  49 W13       29.97F
YANKTON        SUNNY     45  27  49 SW12      30.00F
$$

ABBREVIATIONS USED IN REMARKS
   TC - TEMPERATURE IN CELSIUS
  WCI - WIND CHILL INDEX
   HX - HEAT INDEX
  VSB - VISIBILITY




USA.gov is the U.S. government's official web portal to all federal, state and local government web resources and services.